Flag for Colombia Weather past 2 weeks in Barranquilla, Colombia

Now
91 °F

Scattered clouds.


Feels Like: 105 °F
Forecast: 78 / 87 °F
Wind: 3 mph from Southeast

Location: Barranquilla / Ernestocortissoz

Current Time: Dec 20, 2014 at 2:02:35 PM

Latest Report: Dec 20, 2014 at 12:00 PM


Visibility: N/A

Pressure: 29.85 "Hg

Humidity: 63%

Dew point: 77 °F

Location of BarranquillaLocation

Historic Weather in Barranquilla — Graph

°F

Barranquilla temperature yesterday

Maximum temperature yesterday: 90 °F (at 11:00 AM)
Minimum temperature yesterday: 79 °F (at 3:00 AM)
Average temperature yesterday: 82 °F

Past Weeks' High & Low Weather Summary

 TemperatureHumidityPressure
High93 °F (Dec 5, 1:00 PM)100% (Dec 5, 6:00 PM)29.99 "Hg (Dec 5, 6:00 PM)
Low73 °F (Dec 15, 5:00 AM)63% (Dec 8, 1:00 PM)29.73 "Hg (Dec 9, 4:00 PM)
Average82 °F87%29.85 "Hg
* Reported Dec 5 12:00 Noon — Dec 20 12:00 Noon, Barranquilla, Weather by CustomWeather, © 2014

Note: Actual official high and low records may vary slightly from our data, if they occured in-between our weather recording intervals... More about our weather records

Advertising

Barranquilla weather history for previous 24 hours

 ConditionsComfort  
Time TempWeatherWind HumidityBarometerVisibility
12:00 PM
Dec 20
91 °FScattered clouds.3 mph63%29.85 "HgN/A
11:00 AM88 °FScattered clouds.3 mph75%29.87 "HgN/A
10:00 AM86 °FPassing clouds.3 mph79%29.89 "HgN/A
9:00 AM84 °FPassing clouds.3 mph89%29.88 "HgN/A
8:00 AM79 °FFog.No wind100%29.87 "Hg2 mi
7:00 AM75 °FLight fog.No wind100%29.84 "Hg5 mi
6:00 AM75 °FFog.No wind100%29.81 "HgN/A
5:00 AM77 °FPassing clouds.6 mph94%29.80 "HgN/A
4:00 AM77 °FClear.No wind89%29.78 "Hg10 mi
3:00 AM79 °FClear.5 mph84%29.78 "Hg10 mi
2:00 AM79 °FClear.5 mph89%29.80 "Hg10 mi
1:00 AM79 °FClear.6 mph89%29.81 "Hg10 mi
12:00 AM81 °FClear.9 mph89%29.82 "Hg10 mi
11:00 PM
Dec 19
81 °FClear.12 mph89%29.83 "Hg10 mi
10:00 PM81 °FClear.12 mph89%29.85 "Hg10 mi
9:00 PM81 °FClear.14 mph89%29.84 "Hg10 mi
8:00 PM81 °FClear.12 mph89%29.83 "Hg10 mi
7:00 PM81 °FClear.14 mph89%29.80 "Hg10 mi
6:00 PM81 °FPassing clouds.7 mph89%29.80 "HgN/A
5:00 PM82 °FScattered clouds.17 mph84%29.80 "HgN/A
4:00 PM84 °FScattered clouds.16 mph79%29.79 "HgN/A
3:00 PM86 °FScattered clouds.9 mph75%29.80 "HgN/A
2:00 PM86 °FSunny.12 mph75%29.81 "Hg10 mi
Weather by CustomWeather, © 2014

See weather overviewHow to use our weather pages